Orbital Elements at Epoch 2459200.5 (2020-Dec-17.0) TDB
Reference: JPL 20 (heliocentric ecliptic J2000)
Element | Value | Uncertainty (1-sigma) | Units |
e | .0391134286848867 | 3.274e-08 | |
a | 2.187358465036087 | 7.6287e-09 | au |
q | 2.101803375705614 | 7.4145e-08 | au |
i | 5.835650230696956 | 3.7748e-06 | deg |
node | 198.0379634118136 | 3.4165e-05 | deg |
peri | 222.8709084054565 | 6.2134e-05 | deg |
M | 343.2784277232324 | 5.0464e-05 | deg |
tp | 2459255.384912764007 (2021-Feb-09.88491276) | 0.00016559 | TDB |
period | 1181.621456882634 3.24 | 6.1816e-06 1.692e-08 | d yr |
n | .3046660992004629 | 1.5939e-09 | deg/d |
Q | 2.272913554366559 | 7.9271e-09 | au |
|
| | Orbit Determination Parameters
Additional Information
|